[[{"header":{"parameterUnit":"m.s-1","parameterCategory":1,"la1":30.2991,"la2":30.254,"lo1":-89.0895,"lo2":-89.0444,"dy":0.0017,"dx":0.0017,"nx":28,"ny":28,"refTime":"2024-04-12T21:00:00:Z","depth":0,"parameterNumber":2,"parameterNumberName":"U-component_of_WINDS"},"data":[0,0,0,0,0,0,0,0,0,0,0,0,0,0,0,0,0,0,0,0,0,0,0,0,0,0,0,0,0,0,0,0,0,0,0,0,0,0,0,0,0,0,0,0,0,0,0,0,0,0,0,0,0,0,0,0,0,0,1.4237,1.4238,0,1.4366,1.4368,1.4369,1.4419,1.4419,1.4418,1.4418,1.4549,1.4553,1.4556,0,0,0,0,0,0,0,0,0,0,0,0,0,1.4027,1.4031,1.4236,1.4238,1.424,1.4366,1.4368,1.437,1.4419,1.4419,1.4418,1.4418,1.4548,1.4552,1.4557,0,0,0,0,0,0,0,0,0,0,0,0,0,1.4134,1.4032,1.4236,1.428,1.4285,1.4366,1.4368,1.437,1.4419,1.4419,1.4418,1.4418,1.4546,1.4552,1.4557,1.4604,0,0,1.4575,1.4577,0,0,0,0,0,0,0,0,1.4128,1.4141,1.4272,1.4277,1.4283,1.4376,1.4342,1.4449,1.4419,1.4368,1.4418,1.4417,1.4492,1.4502,1.4527,1.461,1.4616,1.4575,1.4579,1.4581,1.4583,0,0,0,0,0,0,0,1.412,1.4136,1.4288,1.4273,1.428,1.4291,1.4306,1.4363,1.4431,1.4373,1.4376,1.4391,1.4495,1.4522,1.4531,1.4618,1.4575,1.458,1.4584,1.4586,1.4744,1.4744,0,0,0,0,0,0,1.4106,1.413,1.4284,1.4292,1.4202,1.4296,1.4312,1.4347,1.4431,1.4443,1.4392,1.4393,1.4512,1.4524,1.4536,1.4595,1.4581,1.4587,1.459,1.4743,1.4744,1.4745,0,0,0,0,0,0,1.4101,1.4119,1.4278,1.4212,1.4233,1.43,1.4338,1.4349,1.4377,1.4445,1.4458,1.4407,1.4512,1.4527,1.4586,1.46,1.4589,1.4594,1.4742,1.4743,1.4744,1.4714,0,0,0,0,0,0,1.4095,1.4117,1.4137,1.4212,1.4236,1.4328,1.4339,1.4352,1.4387,1.439,1.4463,1.4475,1.4513,1.4578,1.4592,1.4608,1.4599,1.4741,1.4743,1.4744,1.4715,1.4714,1.4714,0,0,0,0,0,1.4088,1.4123,1.4137,1.4156,1.4262,1.4329,1.4343,1.4387,1.4388,1.4407,1.4451,1.4472,1.4596,1.4583,1.46,1.4618,1.474,1.4742,1.4744,1.4715,1.4714,1.4714,0,0,0,0,0,0,1.4047,1.4134,1.4151,1.4212,1.4263,1.4337,1.4363,1.4385,1.4436,1.4437,1.4489,1.4505,1.4559,1.4595,1.4578,1.4667,1.467,1.4675,1.4642,1.4642,1.4642,1.4632,1.4604,0,0,0,0,0,1.4045,1.4093,1.4166,1.4213,1.4237,1.4295,1.4326,1.4356,1.441,1.4432,1.448,1.4531,1.4582,1.4614,1.4664,1.472,1.4736,1.474,1.474,1.4739,1.4743,1.4774,1.4776,1.475,1.475,1.475,0,0,1.4042,1.4095,1.4122,1.4206,1.4249,1.4296,1.4313,1.4363,1.4398,1.4439,1.4498,1.4535,1.4595,1.4652,1.468,1.4683,1.4754,1.4742,1.4741,1.4745,1.4776,1.4778,1.478,1.4751,1.4751,1.4751,0,0,1.406,1.4106,1.4149,1.4192,1.4257,1.4295,1.4305,1.4376,1.4402,1.4462,1.4493,1.4535,1.4622,1.4663,1.4696,1.4728,1.4749,1.4743,1.4742,1.4771,1.4773,1.4776,1.4786,1.479,1.4746,1.4746,1.4746,0,1.4048,1.4122,1.4168,1.4216,1.4252,1.4291,1.4335,1.4373,1.4451,1.4473,1.4476,1.4584,1.4628,1.4695,1.4702,1.4728,1.474,1.4735,1.477,1.4772,1.4775,1.4785,1.4789,1.4745,1.4745,1.4745,1.4745,0,1.4102,1.4153,1.418,1.4254,1.4292,1.4338,1.439,1.4423,1.4449,1.4486,1.4546,1.4599,1.466,1.4678,1.4704,1.4748,1.4748,1.476,1.4764,1.4775,1.4786,1.4791,1.4743,1.4744,1.4744,1.4744,0,0,1.4099,1.4198,1.4208,1.4241,1.4315,1.4354,1.4401,1.4461,1.4488,1.4539,1.4579,1.465,1.4661,1.4697,1.4728,1.4753,1.4774,1.4762,1.4764,1.4762,1.4825,1.4816,1.482,1.4789,1.479,1.4791,1.482,0,1.4127,1.4213,1.4256,1.4322,1.4369,1.4406,1.4446,1.4495,1.4531,1.4575,1.4614,1.4664,1.4674,1.4696,1.4724,1.4766,1.4788,1.4765,1.4825,1.4827,1.4808,1.4826,1.4817,1.4842,1.4825,1.4825,1.4826,0,1.417,1.4222,1.4294,1.4361,1.4382,1.4418,1.4476,1.4518,1.4573,1.4597,1.4637,1.4667,1.4716,1.4716,1.4784,1.4767,1.4794,1.4818,1.482,1.4828,1.4827,1.4833,1.4852,1.4855,1.4833,1.4833,1.4832,0,1.416,1.4247,1.4301,1.4329,1.4409,1.4433,1.4468,1.4523,1.4556,1.4606,1.4628,1.4683,1.4713,1.4755,1.4798,1.4794,1.4861,1.4865,1.4881,1.488,1.4894,1.4892,1.4916,1.4911,1.4911,1.4911,1.4911,0,1.4186,1.4228,1.4298,1.4331,1.4378,1.4427,1.4472,1.4509,1.4558,1.4598,1.4633,1.467,1.4724,1.4767,1.4801,1.4851,1.4865,1.4885,1.4893,1.4882,1.4879,1.49,1.4899,1.4912,1.4912,1.4912,1.4912,0,1.4182,1.4231,1.4292,1.4363,1.4382,1.4413,1.4474,1.4506,1.4544,1.4594,1.4608,1.4666,1.4719,1.4766,1.4835,1.4858,1.4908,1.4919,1.489,1.4894,1.4908,1.4906,1.4946,1.4954,1.4944,1.4944,1.4944,0,1.4196,1.4229,1.4303,1.4333,1.4367,1.4414,1.4448,1.4496,1.453,1.4595,1.462,1.4675,1.4722,1.4803,1.4851,1.4904,1.4916,1.4926,1.4924,1.4911,1.4915,1.4913,1.4916,1.4926,1.4926,1.4926,1.4925,0,1.4213,1.4236,1.4284,1.4341,1.438,1.4427,1.4474,1.4496,1.4553,1.4589,1.4643,1.4679,1.475,1.4804,1.4862,1.4896,1.492,1.4926,1.4932,1.4921,1.4902,1.4912,1.4888,1.4925,1.4925,1.4925,1.4925,1.4925,1.4219,1.4249,1.4307,1.4359,1.44,1.4443,1.4477,1.4519,1.4565,1.4627,1.4652,1.4707,1.476,1.4841,1.4875,1.4917,1.4922,1.4932,1.4934,1.4936,1.4933,1.4895,1.4928,1.4928,1.4928,1.4928,1.4929,0,1.4238,1.4276,1.4324,1.4389,1.443,1.445,1.4503,1.4535,1.4583,1.4632,1.4677,1.4738,1.479,1.4842,1.4896,1.4921,1.4933,1.4933,1.4932,1.4939,1.4926,1.4915,1.4922,1.4922,1.4922,1.4922,1.4922,1.4922,1.4253,1.4306,1.4334,1.4408,1.4446,1.45,1.4529,1.4569,1.4607,1.4675,1.4718,1.4752,1.4801,1.4859,1.4908,1.4921,1.4939,1.4937,1.4953,1.494,1.494,1.494,1.493,1.494,1.494,1.4963,1.4963,1.4963]},{"header":{"parameterUnit":"m.s-1","parameterCategory":1,"la1":30.2991,"la2":30.254,"lo1":-89.0895,"lo2":-89.0444,"dy":0.0017,"dx":0.0017,"nx":28,"ny":28,"refTime":"2024-04-12T21:00:00:Z","depth":0,"parameterNumber":3,"parameterNumberName":"V-component_of_WINDS"},"data":[0,0,0,0,0,0,0,0,0,0,0,0,0,0,0,0,0,0,0,0,0,0,0,0,0,0,0,0,0,0,0,0,0,0,0,0,0,0,0,0,0,0,0,0,0,0,0,0,0,0,0,0,0,0,0,0,0,0,4.0274,4.0274,0,4.0256,4.0255,4.0255,4.0192,4.019,4.0189,4.0188,4.017,4.0171,4.0172,0,0,0,0,0,0,0,0,0,0,0,0,0,4.0255,4.0256,4.0274,4.0274,4.0273,4.0256,4.0255,4.0255,4.0192,4.019,4.0189,4.0187,4.017,4.0171,4.0172,0,0,0,0,0,0,0,0,0,0,0,0,0,4.0253,4.0256,4.0274,4.024,4.0236,4.0256,4.0255,4.0255,4.0192,4.019,4.0188,4.0186,4.017,4.0171,4.0172,4.0224,0,0,4.0176,4.0177,0,0,0,0,0,0,0,0,4.0253,4.0254,4.0245,4.0242,4.0238,4.0224,4.0242,4.0245,4.0193,4.0209,4.0188,4.0185,4.019,4.019,4.0191,4.0223,4.0222,4.0177,4.0177,4.0178,4.0178,0,0,0,0,0,0,0,4.0253,4.0254,4.0267,4.0245,4.0241,4.0226,4.0223,4.0243,4.0212,4.0208,4.0203,4.0202,4.0188,4.019,4.019,4.0222,4.0177,4.0178,4.0179,4.0179,4.0294,4.0296,0,0,0,0,0,0,4.0258,4.0255,4.0267,4.0266,4.0241,4.0228,4.0225,4.0231,4.0212,4.0207,4.0203,4.0199,4.0189,4.0189,4.0189,4.0247,4.0178,4.0179,4.018,4.0292,4.0295,4.0297,0,0,0,0,0,0,4.0258,4.026,4.0268,4.0259,4.0259,4.023,4.0238,4.0231,4.0233,4.0208,4.0203,4.0211,4.0187,4.0187,4.0215,4.0246,4.018,4.0181,4.0289,4.0293,4.0296,4.0364,0,0,0,0,0,0,4.0258,4.026,4.0279,4.026,4.026,4.0294,4.0239,4.0233,4.0235,4.0229,4.0214,4.0209,4.0185,4.0214,4.0217,4.0246,4.0182,4.0286,4.0291,4.0295,4.0359,4.0369,4.0378,0,0,0,0,0,4.0257,4.0299,4.028,4.0282,4.0282,4.0296,4.0296,4.0267,4.0238,4.0257,4.0241,4.021,4.0242,4.0217,4.022,4.025,4.0284,4.029,4.0295,4.0355,4.0367,4.0378,0,0,0,0,0,0,4.0323,4.0296,4.0275,4.0312,4.0307,4.0285,4.0308,4.0281,4.0284,4.0278,4.0243,4.024,4.0273,4.0264,4.0237,4.0299,4.0258,4.0264,4.0303,4.0315,4.0324,4.0325,4.0183,0,0,0,0,0,4.0342,4.0355,4.0331,4.0366,4.0364,4.0337,4.0342,4.032,4.0313,4.0311,4.0297,4.0292,4.0301,4.0307,4.0314,4.0358,4.0353,4.038,4.039,4.0398,4.0403,4.0425,4.0437,4.0314,4.0314,4.0314,0,0,4.0381,4.0368,4.0378,4.0379,4.0372,4.0386,4.0335,4.0353,4.0363,4.0313,4.0338,4.0328,4.0321,4.0356,4.0371,4.035,4.0436,4.0404,4.0411,4.0412,4.0432,4.0443,4.0454,4.0317,4.0317,4.0316,0,0,4.0459,4.0451,4.0478,4.0473,4.0463,4.0445,4.0452,4.0434,4.0425,4.045,4.0413,4.0425,4.0441,4.0437,4.0437,4.0514,4.0485,4.0518,4.0568,4.059,4.0599,4.0608,4.0634,4.0644,4.0523,4.0523,4.0523,0,4.0509,4.0528,4.0496,4.0516,4.0517,4.0473,4.0501,4.0497,4.0491,4.0492,4.0469,4.0488,4.048,4.0514,4.0533,4.0535,4.0541,4.0519,4.06,4.0608,4.0616,4.0641,4.0651,4.0527,4.0527,4.0526,4.0526,0,4.059,4.0604,4.0628,4.0621,4.0625,4.0649,4.0621,4.0629,4.0608,4.0592,4.0617,4.0606,4.061,4.0616,4.0595,4.0647,4.0635,4.0607,4.0565,4.0632,4.0655,4.0664,4.0533,4.0531,4.053,4.0529,0,0,4.0708,4.0684,4.0693,4.069,4.0676,4.0686,4.0709,4.0711,4.0719,4.0716,4.0734,4.0749,4.0722,4.0722,4.0701,4.072,4.0781,4.0689,4.0689,4.0706,4.0837,4.0858,4.0869,4.0762,4.0764,4.0765,4.0837,0,4.0781,4.0816,4.0788,4.0829,4.0841,4.08,4.0819,4.0813,4.0799,4.0808,4.0793,4.0803,4.0768,4.0768,4.0785,4.077,4.0807,4.0765,4.0778,4.0779,4.078,4.0881,4.0903,4.0971,4.0846,4.0848,4.0849,0,4.0871,4.0872,4.0913,4.0896,4.0901,4.0918,4.0918,4.0928,4.092,4.0909,4.0909,4.0882,4.0903,4.0863,4.0891,4.0863,4.0867,4.0861,4.0862,4.0862,4.0817,4.0883,4.0993,4.1003,4.0863,4.0862,4.0861,0,4.0952,4.0964,4.0989,4.0988,4.0969,4.0983,4.0976,4.0966,4.097,4.097,4.0972,4.0976,4.0978,4.0981,4.0956,4.093,4.0988,4.0945,4.0978,4.0979,4.0991,4.0991,4.1103,4.0996,4.0996,4.0996,4.0996,0,4.1036,4.1063,4.1025,4.1042,4.107,4.1039,4.1068,4.1057,4.1049,4.1062,4.1027,4.104,4.1007,4.1017,4.0998,4.1024,4.1025,4.1017,4.1011,4.1019,4.102,4.102,4.1015,4.0999,4.0998,4.0997,4.0997,0,4.1131,4.1107,4.1133,4.1113,4.1109,4.1131,4.1114,4.1128,4.1112,4.1129,4.1132,4.1107,4.1117,4.1092,4.1099,4.1086,4.1123,4.111,4.1125,4.1121,4.1155,4.1152,4.127,4.1284,4.117,4.1171,4.1172,0,4.1186,4.1205,4.1188,4.1194,4.1188,4.1199,4.1202,4.1172,4.1177,4.117,4.1185,4.1192,4.1196,4.1214,4.1197,4.1202,4.1188,4.123,4.1189,4.1196,4.1188,4.1186,4.1188,4.1238,4.1239,4.124,4.1241,0,4.1285,4.1272,4.1278,4.128,4.1284,4.1284,4.1282,4.1289,4.1257,4.1264,4.1274,4.1277,4.1283,4.1291,4.1292,4.1285,4.1258,4.1254,4.1262,4.127,4.1277,4.1273,4.1147,4.1251,4.125,4.125,4.1249,4.1249,4.1361,4.1376,4.1366,4.1373,4.1368,4.1367,4.1379,4.1364,4.1371,4.1374,4.1356,4.1369,4.1361,4.136,4.1356,4.1366,4.1348,4.1359,4.1362,4.1365,4.137,4.1277,4.1367,4.1366,4.1366,4.1366,4.1366,0,4.1458,4.1449,4.1456,4.1453,4.1459,4.1433,4.1429,4.1436,4.1448,4.1443,4.1447,4.1458,4.1465,4.1449,4.1453,4.1465,4.1452,4.1467,4.1465,4.1464,4.1387,4.1379,4.1477,4.1477,4.1477,4.1477,4.1477,4.1477,4.1509,4.1532,4.1519,4.154,4.1531,4.1543,4.1543,4.1542,4.1537,4.1551,4.1556,4.1545,4.1536,4.1539,4.1545,4.154,4.1543,4.1562,4.1552,4.148,4.147,4.1459,4.1452,4.1563,4.1563,4.1628,4.1629,4.1629]}]]